GW0029 Weather Reports


time (UTC)temp
C
wind
direction
speed
KPH
gust
KPH
rain 1hr
cm
rain 24hr
cm
rain mn
cm
humidity
%
barometer
mb
20260507195504 8 248 0.0 3.2 0.00 0.00 0.00 52 1018.0
20260507195006 8 0 0.0 0.0 0.00 0.00 0.00 51 1018.0
20260507194504 8 225 0.0 4.8 0.00 0.00 0.00 51 1018.0
20260507194005 8 225 0.0 4.8 0.00 0.00 0.00 51 1018.0
20260507193504 8 0 0.0 0.0 0.00 0.00 0.00 51 1018.0
20260507193005 8 0 0.0 0.0 0.00 0.00 0.00 51 1018.0
20260507192505 8 0 0.0 0.0 0.00 0.00 0.00 51 1018.0
20260507192006 8 237 0.0 6.4 0.00 0.00 0.00 50 1018.0
20260507191504 9 222 0.0 6.4 0.00 0.00 0.00 50 1018.0
20260507191006 9 223 1.6 4.8 0.00 0.00 0.00 50 1017.0
20260507190504 9 218 1.6 6.4 0.00 0.00 0.00 49 1017.0
20260507190005 10 203 0.0 6.4 0.00 0.00 0.00 49 1017.0
20260507185504 10 270 0.0 1.6 0.00 0.00 0.00 48 1016.0
20260507185006 10 270 0.0 1.6 0.00 0.00 0.00 48 1016.0
20260507184504 10 0 0.0 0.0 0.00 0.00 0.00 47 1016.0
20260507184005 10 248 0.0 8.0 0.00 0.00 0.00 48 1017.0
20260507183504 10 261 0.0 8.0 0.00 0.00 0.00 48 1017.0
20260507182504 11 253 1.6 8.0 0.00 0.00 0.00 47 1016.0
20260507182006 11 254 1.6 8.0 0.00 0.00 0.00 47 1016.0
20260507181504 11 269 0.0 4.8 0.00 0.00 0.00 47 1016.0
20260507181004 11 273 1.6 9.7 0.00 0.00 0.00 47 1016.0
20260507180505 11 297 3.2 11.3 0.00 0.00 0.00 46 1016.0
20260507175504 11 312 3.2 11.3 0.00 0.00 0.00 46 1016.0
20260507175005 11 317 3.2 11.3 0.00 0.00 0.00 45 1016.0
20260507174505 12 309 1.6 6.4 0.00 0.00 0.00 45 1016.0
20260507173005 12 312 6.4 17.7 0.00 0.00 0.00 44 1015.0
20260507172504 12 310 6.4 17.7 0.00 0.00 0.00 43 1016.0
20260507172005 12 291 3.2 16.1 0.00 0.00 0.00 42 1016.0
20260507171505 12 305 6.4 24.1 0.00 0.00 0.00 43 1016.0
20260507171005 12 312 11.3 24.1 0.00 0.00 0.00 42 1016.0
20260507170504 12 302 8.0 19.3 0.00 0.00 0.00 42 1016.0
20260507170006 12 302 8.0 20.9 0.00 0.00 0.00 41 1016.0
20260507165005 12 316 12.9 20.9 0.00 0.00 0.00 40 1016.0
20260507164504 12 318 12.9 20.9 0.00 0.00 0.00 41 1016.0
20260507164004 13 318 12.9 22.5 0.00 0.00 0.00 40 1017.0
20260507163505 13 315 12.9 22.5 0.00 0.00 0.00 41 1017.0
20260507163004 13 305 8.0 22.5 0.00 0.00 0.00 41 1017.0
20260507162504 13 270 6.4 16.1 0.00 0.00 0.00 43 1016.0
20260507162006 13 283 8.0 17.7 0.00 0.00 0.00 42 1016.0
20260507161504 13 298 8.0 17.7 0.00 0.00 0.00 42 1016.0
20260507160005 13 309 12.9 22.5 0.00 0.00 0.00 43 1016.0
20260507155505 13 315 12.9 24.1 0.00 0.00 0.00 43 1017.0
20260507155004 13 322 11.3 24.1 0.00 0.00 0.00 45 1017.0
20260507154505 13 313 11.3 20.9 0.00 0.00 0.00 44 1017.0
20260507154005 13 304 11.3 20.9 0.00 0.00 0.00 45 1016.0
20260507153504 13 300 11.3 20.9 0.00 0.00 0.00 43 1016.0
20260507153005 13 278 9.7 16.1 0.00 0.00 0.00 44 1016.0
20260507152504 13 266 9.7 17.7 0.00 0.00 0.00 45 1016.0
20260507151505 13 306 12.9 24.1 0.00 0.00 0.00 46 1016.0
20260507151004 13 303 11.3 24.1 0.00 0.00 0.00 44 1017.0
20260507150505 13 292 9.7 17.7 0.00 0.00 0.00 45 1017.0
20260507150006 13 283 9.7 19.3 0.00 0.00 0.00 46 1017.0
20260507145504 13 291 12.9 25.7 0.00 0.00 0.00 45 1016.0
20260507145005 13 298 11.3 25.7 0.00 0.00 0.00 46 1016.0
20260507144504 13 285 9.7 12.9 0.00 0.00 0.00 45 1016.0
20260507143004 13 302 11.3 22.5 0.00 0.00 0.00 47 1016.0
20260507142505 13 303 12.9 24.1 0.00 0.00 0.00 46 1017.0
20260507142005 13 309 11.3 24.1 0.00 0.00 0.00 46 1017.0
20260507141505 13 312 11.3 20.9 0.00 0.00 0.00 45 1017.0
20260507140505 13 311 14.5 24.1 0.00 0.00 0.00 46 1016.0
20260507140005 13 306 12.9 24.1 0.00 0.00 0.00 45 1016.0
20260507135006 14 309 12.9 22.5 0.00 0.00 0.00 45 1016.0
20260507134504 14 307 11.3 22.5 0.00 0.00 0.00 45 1016.0
20260507134006 14 298 8.0 20.9 0.00 0.00 0.00 44 1016.0
20260507133504 14 292 8.0 14.5 0.00 0.00 0.00 46 1016.0
20260507133005 13 303 9.7 17.7 0.00 0.00 0.00 45 1016.0
20260507132504 14 302 11.3 24.1 0.00 0.00 0.00 44 1016.0
20260507132005 13 298 11.3 25.7 0.00 0.00 0.00 45 1016.0
20260507131505 14 303 9.7 25.7 0.00 0.00 0.00 45 1016.0
20260507131004 14 303 9.7 19.3 0.00 0.00 0.00 45 1016.0
20260507130505 14 296 9.7 19.3 0.00 0.00 0.00 45 1016.0
20260507130005 14 282 8.0 17.7 0.00 0.00 0.00 46 1016.0
20260507125005 14 276 4.8 12.9 0.00 0.00 0.00 48 1016.0
20260507124505 14 277 6.4 16.1 0.00 0.00 0.00 49 1016.0
20260507124004 14 275 4.8 16.1 0.00 0.00 0.00 50 1016.0
20260507123005 14 260 6.4 12.9 0.00 0.00 0.00 51 1016.0
20260507122504 13 245 6.4 16.1 0.00 0.00 0.00 51 1016.0
20260507122005 13 250 8.0 16.1 0.00 0.00 0.00 50 1016.0
20260507121504 13 264 8.0 19.3 0.00 0.00 0.00 50 1016.0
20260507120504 13 271 8.0 19.3 0.00 0.00 0.00 50 1016.0
20260507115504 13 247 8.0 16.1 0.00 0.00 0.00 50 1015.0
20260507115006 13 253 8.0 17.7 0.00 0.00 0.00 50 1015.0
20260507114504 13 252 6.4 17.7 0.00 0.00 0.00 50 1015.0
20260507114004 13 254 6.4 14.5 0.00 0.00 0.00 51 1016.0
20260507113504 13 261 8.0 24.1 0.00 0.00 0.00 51 1016.0
20260507112004 13 244 8.0 16.1 0.00 0.00 0.00 51 1015.0
20260507111006 13 251 6.4 12.9 0.00 0.00 0.00 51 1015.0
20260507110004 13 252 8.0 17.7 0.00 0.00 0.00 49 1015.0
20260507105505 13 262 6.4 17.7 0.00 0.00 0.00 51 1016.0
20260507105004 13 261 6.4 16.1 0.00 0.00 0.00 50 1016.0
20260507104504 13 254 8.0 20.9 0.00 0.00 0.00 51 1016.0
20260507104005 13 254 8.0 20.9 0.00 0.00 0.00 50 1015.0
20260507103504 13 244 8.0 12.9 0.00 0.00 0.00 51 1015.0
20260507103005 13 267 8.0 16.1 0.00 0.00 0.00 52 1015.0
20260507102505 13 262 8.0 16.1 0.00 0.00 0.00 51 1015.0
20260507101506 13 237 8.0 14.5 0.00 0.00 0.00 51 1015.0
20260507101005 13 244 6.4 12.9 0.00 0.00 0.00 52 1015.0
20260507100505 13 239 6.4 9.7 0.00 0.00 0.00 52 1015.0
20260507100005 13 243 6.4 11.3 0.00 0.00 0.00 53 1015.0
20260507095504 13 253 8.0 19.3 0.00 0.00 0.00 52 1015.0
20260507095005 13 257 6.4 19.3 0.00 0.00 0.00 49 1015.0
20260507094505 13 246 4.8 11.3 0.00 0.00 0.00 51 1015.0
20260507094005 13 247 4.8 11.3 0.00 0.00 0.00 51 1015.0
20260507093504 13 260 6.4 17.7 0.00 0.00 0.00 52 1015.0
20260507093006 13 261 6.4 17.7 0.00 0.00 0.00 51 1015.0
20260507092504 13 246 3.2 11.3 0.00 0.00 0.00 50 1015.0
20260507092006 13 276 6.4 11.3 0.00 0.00 0.00 51 1015.0
20260507091505 13 274 6.4 12.9 0.00 0.00 0.00 48 1015.0
20260507090505 13 237 6.4 12.9 0.00 0.00 0.00 49 1015.0
20260507085504 13 243 6.4 22.5 0.00 0.00 0.00 50 1015.0
20260507085006 13 236 6.4 12.9 0.00 0.00 0.00 50 1015.0
20260507084505 12 240 4.8 9.7 0.00 0.00 0.00 50 1015.0
20260507084005 12 247 6.4 9.7 0.00 0.00 0.00 50 1014.0
20260507082505 12 246 6.4 12.9 0.00 0.00 0.00 50 1014.0
20260507082006 12 286 6.4 12.9 0.00 0.00 0.00 51 1014.0
20260507081504 12 282 6.4 11.3 0.00 0.00 0.00 48 1014.0
20260507080505 12 311 9.7 17.7 0.00 0.00 0.00 52 1014.0
20260507080006 11 320 11.3 17.7 0.00 0.00 0.00 49 1014.0
20260507075504 11 304 9.7 16.1 0.00 0.00 0.00 51 1014.0
20260507075005 11 275 6.4 14.5 0.00 0.00 0.00 54 1014.0
20260507074504 11 277 3.2 9.7 0.00 0.00 0.00 56 1014.0
20260507074005 11 295 3.2 14.5 0.00 0.00 0.00 55 1014.0
20260507073504 11 306 4.8 16.1 0.00 0.00 0.00 56 1014.0
20260507073005 11 314 6.4 16.1 0.00 0.00 0.00 56 1014.0
20260507072505 11 315 6.4 16.1 0.00 0.00 0.00 56 1014.0
20260507072004 11 293 4.8 14.5 0.00 0.00 0.00 56 1014.0
20260507071005 10 301 1.6 8.0 0.00 0.00 0.00 55 1014.0
20260507070009 10 331 8.0 14.5 0.00 0.00 0.00 55 1014.0
20260507065005 10 322 4.8 11.3 0.00 0.00 0.00 56 1013.0
20260507064504 10 329 4.8 8.0 0.00 0.00 0.00 57 1013.0
20260507064004 10 338 3.2 8.0 0.00 0.00 0.00 57 1013.0
20260507063505 10 76 1.6 11.3 0.00 0.00 0.00 59 1013.0
20260507063006 10 82 1.6 11.3 0.00 0.00 0.00 58 1013.0
20260507062504 10 97 0.0 6.4 0.00 0.00 0.00 60 1013.0
20260507061504 9 80 1.6 8.0 0.00 0.00 0.00 61 1013.0
20260507061005 8 71 1.6 8.0 0.00 0.00 0.00 65 1013.0
20260507060504 8 79 4.8 8.0 0.00 0.00 0.00 66 1013.0
20260507060005 7 87 6.4 9.7 0.00 0.00 0.00 68 1013.0
20260507055504 7 95 8.0 11.3 0.00 0.00 0.00 70 1014.0
20260507054004 6 94 8.0 11.3 0.00 0.00 0.00 73 1014.0
20260507053505 5 93 8.0 11.3 0.00 0.00 0.00 75 1014.0
20260507052005 5 93 8.0 11.3 0.00 0.00 0.00 77 1014.0
20260507051504 4 88 6.4 11.3 0.00 0.00 0.00 78 1014.0
20260507050504 4 95 9.7 14.5 0.00 0.00 0.00 79 1014.0
20260507050006 4 95 9.7 14.5 0.00 0.00 0.00 79 1014.0
20260507045005 4 101 9.7 12.9 0.00 0.00 0.00 82 1014.0
20260507044004 3 107 9.7 14.5 0.00 0.00 0.00 83 1014.0
20260507042504 3 87 1.6 8.0 0.00 0.00 0.00 80 1014.0
20260507042004 3 0 0.0 0.0 0.00 0.00 0.00 79 1014.0
20260507041505 3 0 0.0 0.0 0.00 0.00 0.00 79 1014.0
20260507041006 3 0 0.0 0.0 0.00 0.00 0.00 80 1014.0
20260507040504 3 0 0.0 0.0 0.00 0.00 0.00 80 1014.0
20260507040005 2 0 0.0 0.0 0.00 0.00 0.00 80 1014.0
20260507035504 2 0 0.0 0.0 0.00 0.00 0.00 80 1014.0
20260507035006 2 0 0.0 0.0 0.00 0.00 0.00 80 1014.0
20260507034004 2 0 0.0 0.0 0.00 0.00 0.00 79 1013.0
20260507033505 2 0 0.0 0.0 0.00 0.00 0.00 79 1013.0
20260507033005 2 0 0.0 0.0 0.00 0.00 0.00 79 1013.0
20260507032504 2 0 0.0 0.0 0.00 0.00 0.00 79 1013.0
20260507032005 2 0 0.0 0.0 0.00 0.00 0.00 79 1013.0
20260507031504 2 0 0.0 0.0 0.00 0.00 0.00 79 1013.0
20260507031006 2 0 0.0 0.0 0.00 0.00 0.00 79 1012.0
20260507030504 2 0 0.0 0.0 0.00 0.00 0.00 79 1012.0
20260507030004 2 0 0.0 0.0 0.00 0.00 0.00 79 1012.0
20260507025006 2 0 0.0 0.0 0.00 0.00 0.00 79 1012.0
20260507024504 2 0 0.0 0.0 0.00 0.00 0.00 78 1012.0
20260507024005 2 0 0.0 0.0 0.00 0.00 0.00 78 1012.0
20260507023504 2 0 0.0 0.0 0.00 0.00 0.00 77 1012.0
20260507023005 2 0 0.0 0.0 0.00 0.00 0.00 76 1012.0
20260507022505 2 0 0.0 0.0 0.00 0.00 0.00 76 1012.0
20260507022005 2 0 0.0 0.0 0.00 0.00 0.00 76 1012.0
20260507021005 2 0 0.0 0.0 0.00 0.00 0.00 76 1012.0
20260507020504 2 0 0.0 0.0 0.00 0.00 0.00 76 1012.0
20260507020005 2 0 0.0 0.0 0.00 0.00 0.00 76 1012.0
20260507015504 2 0 0.0 0.0 0.00 0.00 0.00 75 1012.0
20260507015004 2 0 0.0 0.0 0.00 0.00 0.00 75 1012.0
20260507014505 2 0 0.0 0.0 0.00 0.00 0.00 75 1012.0
20260507014004 2 0 0.0 0.0 0.00 0.00 0.00 74 1012.0
20260507013505 2 0 0.0 0.0 0.00 0.00 0.00 74 1012.0
20260507013004 2 0 0.0 0.0 0.00 0.00 0.00 73 1012.0
20260507012505 2 0 0.0 0.0 0.00 0.00 0.00 73 1012.0
20260507012005 2 0 0.0 0.0 0.00 0.00 0.00 73 1012.0
20260507011504 2 0 0.0 0.0 0.00 0.00 0.00 73 1012.0
20260507010506 2 0 0.0 0.0 0.00 0.00 0.00 73 1011.0
20260507010005 2 0 0.0 0.0 0.00 0.00 0.00 72 1011.0
20260507005505 3 0 0.0 0.0 0.00 0.00 0.00 71 1012.0
20260507005004 3 0 0.0 0.0 0.00 0.00 0.00 71 1012.0
20260507004504 3 0 0.0 0.0 0.00 0.00 0.00 71 1012.0
20260507004006 3 0 0.0 0.0 0.00 0.00 0.00 72 1011.0
20260507003504 3 0 0.0 0.0 0.00 0.00 0.00 72 1011.0
20260507003004 3 112 0.0 4.8 0.00 0.00 0.00 71 1011.0
20260507002505 3 104 3.2 8.0 0.00 0.00 0.00 71 1012.0
20260507001504 3 112 0.0 6.4 0.00 0.00 0.00 70 1012.0
20260507001004 3 0 0.0 0.0 0.00 0.00 0.00 69 1012.0
20260507000505 3 0 0.0 0.0 0.00 0.00 0.00 69 1012.0
20260507000006 3 0 0.0 0.0 0.00 0.00 0.00 68 1012.0
20260506235504 3 0 0.0 0.0 0.00 0.00 0.00 67 1013.0
20260506235004 4 0 0.0 0.0 0.00 0.00 0.00 67 1013.0
20260506234505 4 107 1.6 6.4 0.00 0.00 0.00 67 1013.0
20260506234005 4 110 3.2 8.0 0.00 0.00 0.00 66 1012.0
20260506233006 5 94 1.6 6.4 0.00 0.00 0.00 65 1012.0
20260506232504 5 0 0.0 0.0 0.00 0.00 0.00 67 1013.0
20260506232005 5 0 0.0 0.0 0.00 0.00 0.00 66 1013.0
20260506231504 5 0 0.0 0.0 0.00 0.00 0.00 67 1013.0
20260506231005 5 0 0.0 0.0 0.00 0.00 0.00 67 1012.0
20260506230504 5 0 0.0 0.0 0.00 0.00 0.00 68 1012.0
20260506230005 5 0 0.0 0.0 0.00 0.00 0.00 67 1012.0
20260506225006 5 0 0.0 0.0 0.00 0.00 0.00 66 1012.0
20260506224504 5 0 0.0 0.0 0.00 0.00 0.00 65 1012.0
20260506224004 5 0 0.0 0.0 0.00 0.00 0.00 65 1012.0
20260506223504 5 0 0.0 0.0 0.00 0.00 0.00 64 1012.0
20260506223004 5 0 0.0 0.0 0.00 0.00 0.00 63 1012.0
20260506222005 5 0 0.0 0.0 0.00 0.00 0.00 60 1012.0
20260506221504 5 0 0.0 0.0 0.00 0.00 0.00 59 1012.0
20260506221004 5 0 0.0 0.0 0.00 0.00 0.00 59 1012.0
20260506220505 6 0 0.0 0.0 0.00 0.00 0.00 58 1012.0
20260506220005 6 0 0.0 0.0 0.00 0.00 0.00 57 1012.0
20260506215505 6 0 0.0 0.0 0.00 0.00 0.00 56 1012.0
20260506215005 6 198 0.0 8.0 0.00 0.00 0.00 55 1012.0
20260506214505 6 195 1.6 8.0 0.00 0.00 0.00 55 1012.0
20260506214004 6 195 0.0 3.2 0.00 0.00 0.00 53 1011.0
20260506213506 6 200 0.0 3.2 0.00 0.00 0.00 52 1011.0
20260506213005 6 198 1.6 4.8 0.00 0.00 0.00 52 1011.0
20260506212504 6 197 1.6 4.8 0.00 0.00 0.00 51 1011.0
20260506212006 7 0 0.0 0.0 0.00 0.00 0.00 50 1011.0
20260506211506 7 0 0.0 0.0 0.00 0.00 0.00 49 1011.0
20260506211004 7 162 0.0 4.8 0.00 0.00 0.00 47 1011.0
20260506210505 7 170 0.0 4.8 0.00 0.00 0.00 46 1011.0
20260506210004 7 203 0.0 1.6 0.00 0.00 0.00 45 1011.0
20260506205505 7 0 0.0 0.0 0.00 0.00 0.00 45 1011.0
20260506205005 7 0 0.0 0.0 0.00 0.00 0.00 45 1011.0
20260506204006 7 0 0.0 0.0 0.00 0.00 0.00 44 1011.0
20260506203005 7 0 0.0 0.0 0.00 0.00 0.00 43 1011.0
20260506202505 7 0 0.0 0.0 0.00 0.00 0.00 43 1011.0
20260506202005 8 0 0.0 0.0 0.00 0.00 0.00 43 1011.0
20260506201504 8 0 0.0 0.0 0.00 0.00 0.00 43 1011.0
20260506201005 8 0 0.0 0.0 0.00 0.00 0.00 43 1011.0
20260506200505 8 225 0.0 3.2 0.00 0.00 0.00 42 1011.0